Location: Namasale
(1.5000°N, 32.6167°E)
Time: 19:03:10
(UTC+00:00)

Cosmos 1626 - Pass Details

Date: 09 April 2020
Orbit: 492 x 494 km, 82.5° (Epoch: 27 May)

Event Time Altitude Azimuth Distance (km) Brightness Sun altitude
Rises 16:36:48 0° 352° (N) 2,560 6.0 -11.1°
Reaches altitude 10° 16:38:55 10° 350° (N) 1,681 5.0 -11.7°
Maximum altitude 16:42:34 69° 267° (W) 530 2.4 -12.6°
Drops below altitude 10° 16:46:15 10° 183° (S) 1,689 4.7 -13.5°
Sets 16:48:22 0° 180° (S) 2,573 5.7 -14.0°
